Hourly Weather Roundup
Issued by NWS Central Illinois

Home | Current Version | Previous Version | Text Only | Print | Product List | Glossary On
Versions: 1 2 3 4 5 6 7 8 9 10 11 12 13 14 15 16 17 18 19 20 21 22 23 24 25 26 27 28 29 30 31 32 33 34 35 36 37 38 39 40 41 42 43 44 45 46 47 48 49 50
000
NZUS43 KILX 010110
HWRILX

AREA WEATHER ROUNDUP
NATIONAL WEATHER SERVICE, LINCOLN IL
800 PM CDT TUE MAY 31 2016


CITY           SKY/WX    TMP DP  RH WIND       PRES   REMARKS
BLOOMINGTON    MOCLDY    72  65  78 NE10      29.94F
CHAMPAIGN      CLOUDY    68  61  78 N12       29.95S
DANVILLE       RAIN      74  61  63 NW9       29.93R
DECATUR        CLOUDY    70  64  81 NE6       29.92S
EFFINGHAM      PTCLDY    74  68  83 CALM      29.93S
FLORA          CLOUDY    78  65  65 N5        29.92R HX  80
GALESBURG      CLOUDY    76  62  60 SE5       29.90S
JACKSONVILLE   PTCLDY    76  65  67 E6        29.90R
LACON          PTCLDY    71  64  78 E13       29.93R
LAWRENCEVILLE  CLOUDY    81  62  52 CALM      29.92R HX  82
LITCHFIELD     CLEAR     75  63  66 SE3       29.91R
$$


CITY           SKY/WX    TMP DP  RH WIND       PRES   REMARKS
LINCOLN        PTCLDY    74  61  63 CALM      29.91S
MACOMB         MOCLDY    78  62  57 S3        29.92R
MATTOON        CLOUDY    76  59  55 N9        29.92R
MT CARMEL AP   CLOUDY    81  63  53 CALM      29.90F HX  82
OLNEY-NOBLE AP CLEAR     77  64  65 CALM      29.92S
PARIS          CLOUDY    76  61  59 NW6       29.95R
PEORIA         CLOUDY    71  65  81 E7        29.91F
PONTIAC        CLOUDY    73  64  74 SE9       29.99S
RANTOUL        RAIN      68  64  86 N8        29.97R
ROBINSON       CLOUDY    74  64  71 CALM      29.92S
SPRINGFIELD    CLOUDY    76  63  64 SE3       29.91R
TAYLORVILLE    PTCLDY    73  66  80 CALM      29.91R
$$

...REGIONAL REPORTS...


CITY           SKY/WX    TMP DP  RH WIND       PRES   REMARKS
CHICAGO O`HARE CLOUDY    67  63  87 E7        29.95F
KANKAKEE       CLOUDY    69  62  78 NE6       29.97R
MOLINE         PTCLDY    70  66  87 E3        29.89S
MOUNT STERLING CLEAR     76  66  71 CALM      29.89S
MOUNT VERNON   PTCLDY    72  63  73 CALM      29.91S
PITTSFIELD     CLEAR     78  66  67 SE3       29.91R HX  80
QUINCY         CLEAR     78  63  59 CALM      29.90R HX  80
ROCKFORD       CLOUDY    67  62  84 SE6       29.96S
$$


CITY           SKY/WX    TMP DP  RH WIND       PRES   REMARKS
BURLINGTON     MOCLDY    76  64  66 S6        29.88S
CEDAR RAPIDS   CLOUDY    67  63  87 NW14      29.90R
DES MOINES     CLOUDY    71  63  75 CALM      29.90R
KIRKSVILLE     CLEAR     73  66  78 W3        29.91R
OTTUMWA        LGT RAIN  67  64  90 NW10      29.90R
ST LOUIS       MOCLDY    82  61  48 S10       29.90R HX  83
$$


CITY           SKY/WX    TMP DP  RH WIND       PRES   REMARKS
TERRE HAUTE    CLEAR     78  59  51 SE5       29.92R
EVANSVILLE     PTCLDY    79  61  53 E6        29.90S HX  80
INDIANAPOLIS   PTCLDY    81  56  42 SE3       29.93S HX  81
LAFAYETTE      CLEAR     73  58  59 NE7       29.93S
MADISON        CLOUDY    69  59  70 SE13      29.93R
MILWAUKEE      CLOUDY    66  61  84 SE6       29.96F
$$






USA.gov is the U.S. government's official web portal to all federal, state and local government web resources and services.